Погода в Репьеве

Россия / Новосибирская область     55°03′50″N   83°27′58″E
темп.,
°C
ветер,
м/с
пор.,
м/с
влажн.,
%
обл.,
%
осадки,
мм/ч
давл.,
гПа
погр.,
м
23 октября, сб
сб2301:00+2ююз71465100 0.0 1022776
04:00+2ююз81458100 0.0 1022951
07:00+2ююз8155664 0.0 10221032
10:00+3ююз10175687 0.0 10211191
13:00+4ююз101754100 0.0 10191137
16:00+5ююз112056100 0.1 10171234
19:00+3ююз101989100 4.3 10161117
22:00+4юз101894100 2.6 10161099
24 октября, вс
вс2401:00+6юз91782100 2.8 1015919
04:00+6юз91678100 0.1 1015850
07:00+7юз91773100 0.3 1015868
10:00+7юз91676100 0.0 1016817
13:00+8юз9157791 0.0 1017892
16:00+10зюз81572100 0.1 10181521
19:00+8зюз61477100 0.3 1020571
22:00+7юз51185100 0.1 1021347
25 октября, пн
пн2501:00+7юз41090100 0.1 1021295
04:00+6ююз41093100 0.0 1020294
07:00+7ююз51389100 0.0 1018407
10:00+7ююз81783100 0.0 1017669
13:00+10юз91766100 0.0 1015932
16:00+11юз91656100 0.0 1014990
19:00+10зюз71354100 0.0 1017753
22:00+6зюз377261 0.0 1019148
26 октября, вт
вт2601:00+4зсз1182100 0.0 102010
04:00+4юв118461 0.0 101910
07:00+4ююв3680100 0.0 1018116
10:00+6ю41169100 0.0 1016308
13:00+9ю61358100 0.0 1013518
16:00+9ю61550100 0.0 1009614
19:00+8ююз71657100 0.0 1008610
22:00+8юз71651100 0.0 1007575
27 октября, ср
ср2701:00+7зюз61261100 0.0 1009464
04:00+3зсз5988100 0.0 1014800
07:00+1сз5863100 0.4 1019803
10:000сз4563100 0.0 1023591
13:00+1зсз345189 0.0 1025834
16:00+2зсз344272 0.0 1026945
19:00−1з225488 0.0 102811
22:00−1зсз1156100 0.0 102910